This is the latest recevied weather packets stored in our database for station/object AI5ON. If no packets are shown the sender has not sent any weather packets the latest 10 day(s).
| Time | Temp. | Humidity | Pressure | Rain* | Wind** | Luminosity | Snow |
|---|---|---|---|---|---|---|---|
| 1787947782 | 35° C | 49% | 1015.5 hPa | 0 mm | - | 847 W/m² | - |
| 1787947480 | 35° C | 49% | 1015.6 hPa | 0 mm | - | 876 W/m² | - |
| 1787947175 | 35° C | 50% | 1015.7 hPa | 0 mm | - | 869 W/m² | - |
| 1787946874 | 35° C | 51% | 1015.6 hPa | 0 mm | - | 870 W/m² | - |
| 1787946572 | 35° C | 49% | 1015.8 hPa | 0 mm | - | 886 W/m² | - |
| 1787946268 | 35° C | 47% | 1016 hPa | 0 mm | - | 880 W/m² | - |
| 1787945968 | 34.44° C | 49% | 1015.8 hPa | 0 mm | - | 896 W/m² | - |
| 1787945663 | 34.44° C | 49% | 1015.8 hPa | 0 mm | - | 888 W/m² | - |
| 1787945362 | 33.89° C | 52% | 1015.9 hPa | 0 mm | - | 918 W/m² | - |
| 1787945058 | 33.89° C | 55% | 1016 hPa | 0 mm | - | 197 W/m² | - |
| 1787944755 | 34.44° C | 53% | 1016.2 hPa | 0 mm | - | 949 W/m² | - |
| 1787944451 | 34.44° C | 50% | 1016.2 hPa | 0 mm | - | 946 W/m² | - |
| 1787944147 | 33.89° C | 53% | 1016.5 hPa | 0 mm | - | 927 W/m² | - |
| 1787943841 | 34.44° C | 52% | 1016.4 hPa | 0 mm | - | 609 W/m² | - |
| 1787943537 | 35.56° C | 52% | 1016.5 hPa | 0 mm | - | 951 W/m² | - |
| 1787943232 | 35° C | 51% | 1016.5 hPa | 0 mm | - | 981 W/m² | - |
| 1787942931 | 34.44° C | 51% | 1016.6 hPa | 0 mm | - | 980 W/m² | - |
| 1787942627 | 35° C | 52% | 1016.7 hPa | 0 mm | - | 962 W/m² | - |
| 1787942327 | 34.44° C | 51% | 1016.8 hPa | 0 mm | - | 950 W/m² | - |
| 1787942022 | 34.44° C | 51% | 1016.7 hPa | 0 mm | - | 949 W/m² | - |
| 1787941717 | 34.44° C | 54% | 1016.9 hPa | 0 mm | - | 953 W/m² | - |
| 1787941416 | 34.44° C | 52% | 1016.9 hPa | 0 mm | - | 950 W/m² | - |
| 1787941115 | 34.44° C | 52% | 1016.8 hPa | 0 mm | - | 975 W/m² | - |
| 1787940811 | 33.89° C | 56% | 1017 hPa | 0 mm | - | 993 W/m² | - |
| 1787940508 | 33.89° C | 54% | 1016.9 hPa | 0 mm | - | 1011 W/m² | - |
* Rain latest hour (hover to see other rain measurements)
** Current wind speed in m/s (hover to see current wind gust speed)